Aeroporto :
LOGIN :

Iscrizione | Disclaimer

   EN    FR    IT 

 










Sommario :    VFR   VFR Marginale   IFR   IFR Intensivo   IFR Molto Intensivo
Visibilità : 
Base nubi : 
>= 8 km
>= 3000ft
5 / 8 km
1000 / 3000 ft
1500m / 5 km
500 / 1000 ft
800 / 1500m
200 / 500 ft
< 800m
< 200 ft
Simboli :   Temporali  Nebbia  Neve Forte  Precipitazioni Forti  Vento > 20 kt
SIGMETs :   Varie  Temporali  Ghiacco  Turbolenza  Onda orograficha  Ceneri Vulcaniche







- Altitudine del aeroporto : 160 ft
- Codice IATA : FMO


EDDG - Münster Osnabrück Int.

ULTIMO METAR :
  • 180820Z 04005KT 010V100 CAVOK M01/M04 Q1032 NOSIG

METARs OBSOLETI :
  • 180750Z 04003KT 020V090 CAVOK M02/M05 Q1032 NOSIG
  • 180720Z 03004KT CAVOK M03/M05 Q1032 NOSIG
  • 180650Z 04006KT CAVOK M02/M05 Q1031 NOSIG
  • 180620Z 04007KT 010V080 CAVOK M02/M05 Q1032 NOSIG
  • 180550Z 04007KT 020V080 CAVOK M02/M04 Q1032 NOSIG

TAF TAF EDDG
Valido dal 18 a 06 ore il 19 a 06 ore UTC


180500Z 1806/1906 VRB02KT CAVOK
BECMG 1806/1808 05008KT
PROB30
TEMPO 1902/1906 BKN012
Nessun NOTAM noto per questo aeroporto.



MetMap, La meteo Aeronautica in un colpo d'occhio ! - Copyright ORBIFLY Dicembre 2007 - Disclaimer

ORBIFLY MET'MAP TEAM :

Programmazione e sviluppo : Alexandra Zaïnal
Concezione e sviluppo : Baudouin d'Aumeries
Co-Programmazione e sviluppo : Marc-Olivier Méhu
Supporto tecnico e logistico : Manuel Goepfert
Aiuto per la traduzione : Arnaldo La Scala

Contatto : metmap@orbifly.com




FONTI E CREDITI :

   NOAA